RH
8 8 9 9 8 8 9 9 8 7 7 7 7 8 8 8 9 10 10 15 28 42 62 60 57 56 64 66 63 56 57 23 21
9 9 9 10 10 10 10 9 7 6 6 6 6 7 8 9 9 9 9 9 10 14 43 41 43 46 56 55 59 65 66 60 28
11 9 8 8 6 4 4 4 4 5 6 6 6 6 6 6 7 7 9 10 10 9 10 48 45 60 43 55 60 55 55 65 69
12 8 4 4 4 3 4 5 6 6 7 7 7 8 9 11 11 11 10 8 8 9 9 12 36 47 35 53 46 56 54 52 59
11 6 4 3 3 4 6 6 8 8 9 9 10 11 12 12 11 11 10 10 10 10 10 10 10 19 64 64 49 40 53 63 52
7 4 4 4 5 6 7 9 10 10 10 10 11 11 11 10 9 10 10 10 10 10 10 10 10 10 12 38 76 82 72 62 67
4 5 6 6 7 8 10 11 10 10 10 10 11 11 11 10 9 9 8 8 8 8 8 8 8 9 11 11 13 31 58 71 71
5 7 9 10 11 12 11 11 10 10 10 10 10 10 10 11 10 10 10 9 9 9 9 9 10 10 11 12 12 12 12 15 29
6 9 11 12 11 10 7 6 6 7 7 8 8 8 8 8 8 8 8 8 9 9 10 10 11 12 12 14 16 18 19 18 15
6 9 10 10 8 8 8 9 8 8 7 7 8 9 9 9 10 10 9 10 9 10 11 13 13 14 16 16 16 18 20 22 24
7 8 10 10 10 10 10 9 9 8 8 9 9 13 18 22 24 19 16 14 12 12 13 13 14 16 15 19 24 27 28 29 30
8 8 9 9 9 9 9 9 8 8 10 11 11 12 23 35 40 39 37 31 22 15 14 15 16 17 24 30 32 35 33 30 34
8 8 8 8 9 9 10 13 17 20 22 24 22 14 21 32 36 40 40 35 21 15 16 18 20 29 34 42 43 38 42 45 55
9 10 10 12 13 16 20 25 29 30 22 19 21 20 14 23 24 34 38 33 22 17 18 21 26 34 43 47 50 42 42 79 77
10 10 11 12 13 14 16 18 23 29 35 29 18 19 16 17 21 29 35 33 26 19 17 24 32 35 43 46 50 50 70 76 77
15 16 20 27 33 36 38 36 34 34 35 32 28 19 18 22 25 26 32 36 32 25 18 18 28 34 38 52 54 54 67 87 81
22 25 32 35 32 28 26 26 30 31 32 33 28 23 21 20 24 26 27 34 34 28 22 17 18 27 32 40 57 56 92 100 95
30 30 35 35 30 22 18 15 14 18 20 22 23 20 20 22 22 22 25 28 32 33 28 21 17 20 28 39 51 61 69 96 100
36 35 37 34 28 20 14 10 9 8 9 9 10 10 11 12 16 26 26 30 31 35 35 31 24 17 20 31 37 55 66 85 99
42 41 39 33 25 18 13 10 9 7 7 6 7 7 7 7 7 10 20 28 26 30 32 34 31 26 17 19 34 44 54 57 81
Wind_Speed
18 18 16 16 14 13 13 13 13 14 15 15 15 16 17 18 19 19 20 21 19 16 17 17 18 17 16 15 14 13 12 14 15
16 15 15 13 12 11 9 8 9 10 11 11 12 13 14 14 16 18 20 21 20 20 19 20 20 19 18 19 18 17 16 15 15
14 14 13 13 12 11 10 11 10 10 11 13 13 13 13 13 14 15 17 19 19 19 20 19 20 21 20 20 20 21 20 19 19
14 14 14 14 14 13 12 11 11 11 12 13 15 16 15 15 15 15 17 17 16 17 20 19 20 22 22 21 23 24 23 23 23
15 15 15 14 14 13 12 11 11 12 13 15 15 16 19 19 18 18 18 17 17 18 19 19 20 21 19 22 24 26 26 25 27
15 15 14 13 12 11 11 11 12 13 14 16 17 17 18 19 18 17 16 17 19 20 20 21 23 25 27 26 25 25 26 28 28
14 14 13 12 11 11 11 12 13 14 15 16 17 17 18 17 19 19 16 18 20 21 21 23 24 27 28 29 30 31 31 30 30
13 12 11 11 11 11 13 14 15 16 16 17 17 18 18 18 20 20 19 20 22 22 23 24 26 26 27 29 30 32 35 37 38
13 11 11 11 12 13 14 14 15 15 15 16 17 17 19 19 19 21 21 21 22 23 25 25 25 25 27 28 30 33 35 37 40
13 12 12 13 13 13 14 15 15 15 16 16 17 17 18 19 18 20 21 21 22 23 24 24 24 25 27 29 31 33 35 37 39
13 13 14 14 15 15 16 17 18 18 17 18 18 18 18 18 20 20 22 22 23 23 22 23 22 24 25 26 29 30 32 36 40
13 14 15 16 17 18 19 20 20 19 19 20 20 19 17 17 17 18 20 22 22 21 20 19 20 23 22 22 22 24 28 31 36
15 15 16 17 18 18 18 19 20 19 17 19 21 20 17 17 16 18 20 21 20 18 18 17 20 20 20 17 20 21 23 26 30
17 17 18 18 18 18 18 19 18 16 18 19 21 20 18 18 18 19 20 20 18 16 16 17 19 18 17 18 20 21 21 19 25
20 21 21 21 21 21 20 20 23 20 18 20 20 20 18 19 19 20 21 20 17 15 15 16 18 19 18 20 17 21 25 22 25
21 21 21 21 21 22 21 20 21 24 20 20 23 20 19 19 19 19 21 20 17 15 14 17 17 18 20 20 20 21 27 24 21
23 22 21 21 22 23 23 21 21 23 21 20 20 20 19 20 18 19 21 19 17 17 15 17 21 17 18 20 17 18 20 22 20
24 23 21 21 21 22 22 22 21 21 23 21 20 20 19 18 19 19 19 20 18 16 16 16 22 19 16 19 20 19 18 23 20
24 23 22 22 22 22 22 22 21 21 20 21 22 22 21 20 14 16 19 21 22 20 17 17 21 22 18 21 19 18 17 11 17
23 22 21 21 21 21 21 21 21 20 20 19 18 20 21 23 22 14 12 17 21 22 19 20 20 22 21 21 20 21 19 12 10
Wind_Direction
308 308 308 305 294 285 284 281 276 272 269 266 262 262 261 264 261 260 260 260 259 258 257 258 262 263 263 265 268 267 258 256 255
306 305 307 307 304 296 283 276 279 281 281 280 278 271 264 263 261 259 257 257 256 255 254 255 257 258 263 264 265 265 266 265 265
304 300 299 299 295 291 287 286 284 286 291 292 286 279 273 267 264 264 261 258 255 254 252 250 253 256 254 257 262 264 264 263 260
307 302 298 294 289 288 285 282 284 287 290 285 286 284 278 275 272 268 266 265 260 253 251 255 251 253 254 253 255 261 262 261 262
309 305 302 297 293 290 286 284 286 291 290 288 281 279 282 277 272 269 264 262 262 256 253 255 257 257 253 255 253 251 252 255 258
306 302 297 293 290 285 283 284 285 286 288 287 286 283 279 279 271 266 265 265 262 259 258 256 257 256 255 251 248 249 252 253 252
308 306 302 296 290 287 286 286 288 289 289 288 287 285 282 278 277 272 268 266 264 264 263 262 261 261 262 261 259 255 252 249 250
308 305 302 297 295 293 293 293 292 292 290 288 287 286 282 280 278 275 273 269 269 268 269 270 271 272 271 270 267 264 259 255 249
309 303 298 295 294 294 294 295 296 296 294 291 290 288 284 280 277 275 274 273 273 273 274 275 277 279 280 277 273 268 264 260 255
309 303 298 296 298 301 302 302 302 302 300 297 295 293 290 286 282 279 277 274 274 274 277 280 281 282 279 278 277 276 273 271 265
317 309 304 304 305 307 306 307 307 306 305 302 299 297 294 292 288 286 280 276 274 274 278 280 284 285 280 279 281 285 286 280 274
325 317 311 308 306 305 305 305 304 305 306 302 299 295 295 293 292 286 279 276 275 278 281 287 287 283 285 289 292 290 292 286 282
324 318 314 310 308 308 307 307 307 309 307 300 297 294 291 290 289 283 279 278 279 284 286 288 287 290 292 297 302 299 294 300 295
317 315 313 310 309 309 310 310 310 316 313 303 297 295 285 282 286 284 282 280 281 284 286 290 291 291 286 294 302 296 301 308 313
319 317 315 314 312 310 307 305 304 306 309 309 304 297 288 280 281 281 280 279 284 283 280 287 292 288 285 287 298 296 316 309 317
322 319 318 318 315 314 313 311 306 305 305 303 306 304 296 286 280 280 276 284 284 281 278 282 287 288 283 284 300 307 311 318 305
325 322 321 320 318 317 316 315 312 309 308 302 300 301 296 289 287 285 286 284 285 283 282 284 290 294 288 289 293 308 332 345 310
321 320 319 318 319 319 318 318 315 311 310 308 304 303 297 290 291 289 286 286 284 279 282 285 286 294 294 285 288 300 324 337 10
321 318 317 318 321 323 323 323 321 317 315 315 311 305 300 296 290 291 288 291 290 290 288 285 284 289 294 291 289 295 311 342 359
319 317 317 319 322 325 325 325 325 323 323 321 315 313 312 310 308 304 275 282 283 288 289 285 286 292 294 290 292 290 299 311 320